Vorticity
6 6 -1 4 -5 5 1 2 3 7 1 34 12 15 9 6 8 6 7 6 6 3 6 9 9 7 7 6 7 7 6 5
6 5 3 1 -2 3 4 4 6 12 15 9 7 6 7 6 11 11 4 2 4 5 5 5 6 5 5 5 5 6 6 7
3 2 2 1 2 2 4 8 16 18 8 7 8 7 8 6 2 0 0 3 4 6 6 5 5 6 6 6 6 6 7 8
5 5 6 7 9 18 22 24 10 7 10 10 6 6 3 2 -0 2 1 3 5 6 5 7 7 7 7 6 7 6 10 9
5 7 19 24 16 12 12 3 7 6 14 2 8 1 8 -4 5 0 2 -1 8 7 6 8 8 8 9 9 9 10 12 11
10 17 14 9 9 7 3 1 6 17 4 6 3 2 7 4 2 1 2 2 9 5 8 7 10 10 10 13 11 12 11 13
9 11 8 7 -6 5 5 11 9 7 1 6 4 4 1 8 6 4 -1 16 6 7 6 8 8 9 11 9 7 13 11 24
9 12 12 -6 11 -6 12 10 9 1 3 2 3 5 -2 5 3 -0 12 7 8 7 9 8 9 9 9 11 12 15 23 24
11 11 -3 6 -3 9 9 6 2 2 2 2 5 5 -3 5 1 7 11 7 8 8 8 8 9 9 11 13 17 16 11 11
11 3 4 1 -3 7 7 7 3 3 4 4 2 3 12 -12 3 12 9 10 9 8 8 8 9 10 11 13 21 5 25 16
9 3 2 -0 -3 6 6 7 -1 4 2 4 5 3 -12 1 13 13 10 8 8 7 7 8 9 10 12 20 18 26 5 2
8 2 -1 5 0 -0 8 3 5 3 2 3 5 12 4 13 13 11 8 6 6 6 7 9 11 12 14 16 29 4 10 6
5 2 3 7 2 1 2 8 9 3 -3 11 13 -3 10 10 10 8 6 6 6 8 9 10 11 10 12 15 19 19 19 20
7 -5 5 7 3 4 -1 12 10 1 6 5 7 6 12 10 8 6 6 6 8 8 9 8 11 11 12 18 17 15 13 10
2 -4 4 6 4 6 3 11 9 4 7 11 9 9 7 7 7 7 6 7 7 8 8 8 11 13 13 17 18 10 13 12
10 8 8 6 4 8 5 12 11 3 5 11 11 5 9 9 8 3 7 7 8 10 9 12 12 12 13 17 16 12 10 9
14 11 9 10 9 10 13 10 9 2 15 8 5 13 8 10 -5 13 7 9 10 10 10 12 12 9 19 15 12 12 11 9
13 10 12 11 12 12 5 12 1 7 12 7 13 8 10 -5 14 7 7 10 9 12 10 12 11 9 23 12 14 13 10 9
3 13 13 12 14 5 18 3 7 11 11 16 7 3 4 12 6 8 8 10 12 12 10 11 11 10 18 13 13 12 9 9
Height
3150 3151 3153 3154 3154 3155 3155 3156 3156 3156 3156 3156 3150 3152 3155 3153 3153 3154 3152 3152 3150 3149 3146 3145 3143 3139 3135 3130 3127 3122 3117 3112
3149 3150 3151 3152 3151 3153 3153 3152 3153 3153 3153 3152 3150 3151 3151 3151 3150 3150 3148 3147 3146 3145 3142 3139 3137 3132 3126 3122 3117 3114 3110 3105
3148 3149 3150 3150 3149 3149 3150 3150 3150 3150 3149 3148 3149 3149 3149 3148 3146 3145 3145 3144 3142 3139 3137 3132 3128 3126 3120 3114 3111 3105 3101 3095
3144 3145 3146 3145 3146 3146 3145 3145 3147 3147 3147 3147 3147 3147 3146 3144 3143 3142 3141 3138 3135 3132 3129 3126 3121 3116 3112 3106 3099 3094 3089 3085
3139 3140 3140 3140 3141 3142 3143 3143 3143 3143 3143 3143 3144 3144 3142 3140 3138 3135 3131 3131 3127 3124 3119 3116 3112 3107 3102 3096 3092 3085 3080 3074
3134 3135 3136 3137 3138 3139 3140 3140 3140 3140 3140 3140 3140 3139 3137 3135 3132 3129 3128 3122 3119 3116 3112 3107 3103 3098 3092 3087 3080 3075 3070 3065
3130 3132 3132 3133 3135 3136 3136 3136 3135 3136 3136 3136 3135 3133 3131 3128 3126 3124 3120 3116 3112 3108 3103 3098 3093 3088 3082 3076 3071 3067 3060 3054
3127 3128 3129 3131 3132 3133 3132 3132 3132 3132 3131 3131 3129 3127 3125 3122 3120 3116 3113 3109 3106 3102 3097 3091 3086 3080 3074 3068 3061 3056 3051 3047
3124 3125 3127 3128 3129 3129 3128 3128 3127 3127 3126 3124 3122 3120 3118 3115 3111 3110 3106 3103 3098 3093 3087 3081 3076 3069 3064 3059 3052 3046 3043 3039
3121 3123 3123 3124 3124 3124 3124 3123 3122 3121 3119 3117 3115 3112 3110 3106 3105 3102 3097 3093 3088 3081 3076 3071 3066 3061 3056 3051 3044 3039 3035 3032
3118 3119 3119 3119 3120 3119 3119 3117 3115 3114 3112 3111 3108 3106 3102 3100 3097 3093 3089 3085 3079 3073 3068 3064 3058 3053 3047 3041 3036 3032 3028 3024
3116 3115 3116 3116 3114 3114 3113 3112 3110 3108 3107 3105 3102 3099 3096 3092 3088 3085 3080 3075 3070 3065 3061 3055 3049 3041 3035 3030 3025 3022 3020 3016
3113 3111 3110 3110 3109 3108 3107 3106 3105 3102 3100 3098 3094 3091 3087 3083 3080 3076 3071 3067 3063 3057 3051 3045 3039 3033 3027 3021 3017 3013 3011 3008
3109 3106 3105 3105 3104 3103 3101 3100 3098 3095 3094 3090 3086 3082 3079 3076 3072 3068 3063 3059 3054 3048 3041 3036 3030 3025 3019 3013 3009 3004 3002 2999
3104 3101 3100 3099 3099 3097 3095 3093 3090 3089 3086 3082 3076 3074 3071 3068 3065 3060 3055 3050 3045 3038 3033 3027 3021 3016 3011 3006 3003 2999 2994 2992
3097 3096 3095 3094 3092 3090 3088 3084 3083 3080 3078 3073 3069 3066 3065 3061 3057 3052 3046 3041 3036 3031 3025 3020 3014 3008 3005 3001 2997 2995 2988 2985
3092 3092 3090 3088 3084 3083 3078 3076 3075 3073 3069 3064 3061 3060 3057 3053 3048 3044 3039 3033 3029 3023 3017 3012 3008 3003 3000 2994 2990 2988 2983 2979
3087 3086 3084 3080 3077 3074 3070 3070 3067 3065 3060 3057 3054 3052 3049 3044 3041 3036 3031 3026 3020 3015 3009 3005 3001 2995 2993 2987 2985 2981 2977 2974
3082 3079 3077 3073 3070 3066 3065 3062 3059 3056 3052 3048 3046 3043 3040 3036 3033 3028 3023 3017 3012 3007 3002 2998 2993 2988 2986 2982 2978 2975 2972 2969